Regional Weather Roundup
Issued by NWS

Home | Current Version | Previous Version | Graphics & Text | Print | Product List | Glossary On
Versions: 1 2 3 4 5 6 7 8 9 10 11 12 13 14 15 16 17 18 19 20 21 22 23 24 25 26 27 28 29 30 31 32 33 34 35 36 37 38 39 40 41 42 43 44 45 46 47 48 49 50
632
ASUS43 KOAX 200302
RWRNE

WEATHER ROUNDUP FOR NEBRASKA
NATIONAL WEATHER SERVICE OMAHA NE
900 PM CST MON FEB 19 2018

NOTES: SATELLITE DATA IS BEING USED TO AUGMENT CLOUD COVER ABOVE
       12000 FEET.
       "FAIR" INDICATES FEW OR NO CLOUDS BELOW 12,000 FEET WITH NO
       SIGNIFICANT WEATHER AND/OR OBSTRUCTIONS TO VISIBILITY.


NEZ001>004-019>022-054>056-200400-
NEBRASKA PANHANDLE

CITY           SKY/WX    TMP DP  RH WIND       PRES   REMARKS
SCOTTSBLUFF    LGT SNOW   2  -3  80 N6        29.88R VSB 3/4 WCI  -9
ALLIANCE       SNOW       0  -3  87 N12       29.81R VSB 1/2 WCI -17
CHADRON        LGT SNOW   0  -4  83 N13       29.92S VSB 1   WCI -18
GORDON         CLOUDY     0  -4  80 N9        29.85F WCI -15
KIMBALL        SNOW       2  -2  83 N12       29.72S VSB 1/2 WCI -15
SIDNEY         CLOUDY     4  -1  80 N13       29.78R WCI -13
$$

NEZ057>060-069>072-079>082-200400-
SOUTHWEST NEBRASKA

CITY           SKY/WX    TMP DP  RH WIND       PRES   REMARKS
NORTH PLATTE   LGT SNOW   9   3  77 N14       29.85S WCI  -7
IMPERIAL       FLURRIES   9   6  88 NE13      29.81R WCI  -7
LEXINGTON      LGT SNOW  13   9  85 N14       29.86S WCI  -2
MCCOOK         CLOUDY    13   9  84 N14       29.84R WCI  -2
OGALLALA       LGT SNOW   9   5  82 N15       29.82S WCI  -8
$$

NEZ005>010-023>029-035>040-094-200400-
NORTH CENTRAL NEBRASKA

CITY           SKY/WX    TMP DP  RH WIND       PRES   REMARKS
VALENTINE      LGT SNOW   6   1  80 N9        29.92S WCI  -8
AINSWORTH      LGT SNOW   7   5  91 N17       29.89F WCI -11
BROKEN BOW     FLURRIES  10   6  84 N15       29.85S WCI  -7
O`NEILL        LGT SNOW  11   9  92 N12       29.91R WCI  -4
ORD            LGT SNOW  11   8  88 N12       29.89R FOG     WCI  -3
THEDFORD         N/A      7   4  86 N10G16    29.87S WCI  -8
$$

NEZ041-046>049-061>064-073>077-083>087-200400-
SOUTH CENTRAL NEBRASKA

CITY           SKY/WX    TMP DP  RH WIND       PRES   REMARKS
GRAND ISLAND   LGT SNOW  15  12  88 N12       29.88R FOG     WCI   2
AURORA         CLOUDY    16  13  89 N10       29.86F WCI   4
HASTINGS       FLURRIES  15  11  83 N14       29.85F WCI   0
HEBRON         CLOUDY    20  16  83 N13       29.84S WCI   7
HOLDREGE       LGT SNOW  14  12  91 N14       29.83F WCI  -1
KEARNEY        FLURRIES  13  10  88 N13       29.87S WCI  -2
YORK           CLOUDY    18  18 100 N10       29.86S WCI   6
$$

NEZ011>018-030>034-042>045-200400-
NORTHEAST NEBRASKA

CITY           SKY/WX    TMP DP  RH WIND       PRES   REMARKS
NORFOLK        LGT SNOW  16  15  96 NE12      29.86S FOG     WCI   3
ALBION         LGT SNOW  15  12  89 N8        29.89R WCI   4
BLAIR          CLOUDY    22  20  93 N7        29.84F WCI  13
COLUMBUS       FLURRIES  18  16  92 N7        29.89F WCI   9
FREMONT        CLOUDY    21  20  93 N5        29.87F WCI  15
TEKAMAH        CLOUDY    21  19  92 N13       29.87F WCI   9
WAYNE          CLOUDY    18  17  96 N9        29.88S WCI   6
$$

NEZ050>053-065>068-078-088>093-200400-
SOUTHEAST NEBRASKA

CITY           SKY/WX    TMP DP  RH WIND       PRES   REMARKS
LINCOLN        FLURRIES  21  18  88 N16       29.86F WCI   7
OMAHA EPPLEY   CLOUDY    22  20  92 NW13      29.86F WCI  10
BEATRICE       CLOUDY    22  20  93 N13       29.84F WCI  10
FALLS CITY     CLOUDY    24  23  96 NW8       29.85S WCI  15
NEBRASKA CITY  CLOUDY    23  23 100 N8        29.84F WCI  14
PLATTSMOUTH    CLOUDY    23  22  96 N7        29.85F WCI  14
$$

NEZ044-045-051>053-067-200400-
OMAHA AREA

CITY           SKY/WX    TMP DP  RH WIND       PRES   REMARKS
OMAHA EPPLEY   CLOUDY    22  20  92 NW13      29.86F WCI  10
BLAIR          CLOUDY    22  20  93 N7        29.84F WCI  13
FREMONT        CLOUDY    21  20  93 N5        29.87F WCI  15
MILLARD        CLOUDY    24  20  87 N7        29.86F WCI  15
OFFUTT AFB     CLOUDY    22  20  90 N7        29.85F WCI  14
PLATTSMOUTH    CLOUDY    23  22  96 N7        29.85F WCI  14
WAHOO          CLOUDY    22  19  89 N9        29.88R WCI  12
$$




USA.gov is the U.S. government's official web portal to all federal, state and local government web resources and services.